TimeCST,TemperatureF,Dew PointF,Humidity,Sea Level PressureIn,VisibilityMPH,Wind Direction,Wind SpeedMPH,Gust SpeedMPH,PrecipitationIn,Events,Conditions,WindDirDegrees,DateUTC
12:56 AM,63.9,54.0,70,30.08,10.0,SSE,16.1,23.0,N/A,,Mostly Cloudy,160,2013-01-11 06:56:00
1:56 AM,63.0,55.9,78,30.08,10.0,SSE,16.1,26.5,0.00,Rain,Light Rain,160,2013-01-11 07:56:00
2:56 AM,63.9,55.9,75,30.06,10.0,South,21.9,29.9,0.00,,Mostly Cloudy,170,2013-01-11 08:56:00
3:56 AM,63.9,55.9,75,30.04,10.0,SSE,16.1,32.2,N/A,,Mostly Cloudy,160,2013-01-11 09:56:00
4:56 AM,63.9,57.9,81,30.01,10.0,SSE,15.0,25.3,N/A,,Mostly Cloudy,160,2013-01-11 10:56:00
5:26 AM,64.4,57.2,77,30.01,10.0,SSE,19.6,29.9,N/A,,Mostly Cloudy,160,2013-01-11 11:26:00
5:56 AM,63.0,59.9,90,30.02,10.0,South,13.8,24.2,0.00,,Overcast,170,2013-01-11 11:56:00
6:14 AM,62.6,60.8,94,30.02,2.0,South,17.3,25.3,0.02,Rain,Light Rain,180,2013-01-11 12:14:00
6:25 AM,62.6,60.8,94,30.02,4.0,South,13.8,21.9,0.02,,Overcast,170,2013-01-11 12:25:00
6:56 AM,63.0,59.9,90,30.04,6.0,South,16.1,-,0.03,Rain,Light Rain,180,2013-01-11 12:56:00
7:31 AM,62.6,60.8,94,30.05,1.8,SSW,12.7,-,0.00,Rain,Light Rain,200,2013-01-11 13:31:00
7:42 AM,62.6,60.8,94,30.05,3.0,South,15.0,-,0.00,Rain,Light Rain,190,2013-01-11 13:42:00
7:56 AM,61.9,61.9,100,30.06,6.0,SSW,13.8,-,0.00,Rain,Light Rain,200,2013-01-11 13:56:00
8:56 AM,64.9,61.9,90,30.07,10.0,South,12.7,-,0.00,,Overcast,190,2013-01-11 14:56:00
10:03 AM,57.2,57.2,100,30.09,4.0,WNW,12.7,-,0.00,Rain,Light Rain,290,2013-01-11 16:03:00
10:48 AM,57.2,57.2,100,30.09,2.5,West,10.4,-,0.01,Rain,Light Rain,260,2013-01-11 16:48:00
10:56 AM,56.8,56.8,100,30.09,3.0,WSW,9.2,-,0.01,Rain,Light Rain,250,2013-01-11 16:56:00
11:11 AM,59.0,59.0,100,30.07,10.0,WSW,9.2,-,0.00,,Mostly Cloudy,250,2013-01-11 17:11:00
11:35 AM,60.8,59.0,94,30.06,9.0,WSW,8.1,-,0.00,,Mostly Cloudy,250,2013-01-11 17:35:00
11:40 AM,60.8,59.0,94,30.06,1.8,WSW,9.2,-,0.01,Rain,Light Rain,240,2013-01-11 17:40:00
11:42 AM,60.8,59.0,94,30.06,1.2,WSW,9.2,-,0.01,Rain,Light Rain,250,2013-01-11 17:42:00
11:49 AM,60.8,60.8,100,30.06,2.0,SW,8.1,-,0.01,Rain,Light Rain,220,2013-01-11 17:49:00
11:56 AM,61.9,61.0,97,30.06,10.0,SW,9.2,-,0.01,,Mostly Cloudy,220,2013-01-11 17:56:00
12:19 PM,62.6,60.8,94,30.04,5.0,WSW,9.2,-,0.00,Rain,Light Rain,240,2013-01-11 18:19:00
12:28 PM,62.6,60.8,94,30.05,10.0,SW,8.1,-,0.00,,Overcast,230,2013-01-11 18:28:00
12:46 PM,60.8,60.8,100,30.04,4.0,South,6.9,-,0.00,Rain,Light Rain,180,2013-01-11 18:46:00
12:56 PM,61.9,61.9,100,30.04,8.0,South,6.9,-,0.00,Rain,Light Rain,180,2013-01-11 18:56:00
1:25 PM,64.4,62.6,94,30.03,10.0,SW,11.5,-,0.00,,Scattered Clouds,220,2013-01-11 19:25:00
1:56 PM,65.8,63.0,90,30.02,10.0,SW,8.1,-,0.00,,Partly Cloudy,230,2013-01-11 19:56:00
2:56 PM,68.0,61.9,81,30.02,10.0,SW,8.1,-,N/A,,Partly Cloudy,220,2013-01-11 20:56:00
3:56 PM,68.0,57.9,70,30.03,10.0,SW,10.4,-,N/A,,Partly Cloudy,220,2013-01-11 21:56:00
4:56 PM,63.9,56.8,78,30.03,10.0,SSW,6.9,-,N/A,,Clear,210,2013-01-11 22:56:00
5:56 PM,63.0,55.9,78,30.04,10.0,SSW,8.1,-,N/A,,Clear,210,2013-01-11 23:56:00
6:56 PM,61.9,55.9,81,30.04,10.0,SSW,4.6,-,N/A,,Clear,200,2013-01-12 00:56:00
7:56 PM,59.9,55.9,87,30.06,10.0,Calm,Calm,-,N/A,,Partly Cloudy,0,2013-01-12 01:56:00
8:56 PM,63.0,57.9,84,30.06,10.0,South,10.4,-,N/A,,Partly Cloudy,180,2013-01-12 02:56:00
9:56 PM,61.0,59.0,93,30.07,10.0,South,9.2,-,N/A,,Clear,190,2013-01-12 03:56:00
10:56 PM,61.0,59.0,93,30.06,10.0,South,6.9,-,N/A,,Clear,190,2013-01-12 04:56:00
11:33 PM,62.6,59.0,88,30.05,10.0,SSW,5.8,-,N/A,,Mostly Cloudy,200,2013-01-12 05:33:00